Regional Weather Roundup
Issued by NWS

Home | Current Version | Previous Version | Text Only | Print | Product List | Glossary Off
Versions: 1 2 3 4 5 6 7 8 9 10 11 12 13 14 15 16 17 18 19 20 21 22 23 24 25 26 27 28 29 30 31 32 33 34 35 36 37 38 39 40 41 42 43 44 45 46 47 48 49 50

000
ASUS45 KBOI 271610
RWRID
WEATHER ROUNDUP FOR IDAHO
NATIONAL WEATHER SERVICE BOISE ID
900 AM MST THU NOV 27 2014

NOTE: "FAIR" INDICATES FEW OR NO CLOUDS BELOW 12000 FEET
WITH NO SIGNIFICANT WEATHER AND/OR OBSTRUCTIONS TO VISIBILITY

IDZ012-014-271700-
SOUTHWEST IDAHO


CITY           SKY/WX    TMP DP  RH WIND       PRES   REMARKS
BOISE          CLOUDY    50  36  58 SE9       30.12F
CALDWELL       NOT AVBL
MOUNTAIN HOME  CLOUDY    44  42  92 E12       30.18R
$$

IDZ016-017-271700-
SOUTHCENTRAL IDAHO


CITY           SKY/WX    TMP DP  RH WIND       PRES   REMARKS
BURLEY         CLOUDY    48  30  49 S9        30.21S
JEROME         CLOUDY    48  31  51 SE3       30.20F
TWIN FALLS     CLOUDY    52  31  44 S10       30.22S
$$

IDZ019>023-271700-
SOUTHEAST IDAHO


CITY           SKY/WX    TMP DP  RH WIND       PRES   REMARKS
IDAHO FALLS    CLOUDY    37  31  78 CALM      30.22R
POCATELLO      SUNNY     50  27  40 SW14      30.23R
REXBURG        CLOUDY    34  31  88 CALM      30.20S
$$

IDZ006-010-011-018-031-032-271700-
CENTRAL IDAHO MOUNTAINS


CITY           SKY/WX    TMP DP  RH WIND       PRES   REMARKS
MCCALL         CLOUDY    36  33  89 NE6       30.13S WCI  31
HAILEY         PTSUNNY   37  28  70 NW12      30.25S WCI  30
STANLEY          N/A     41  30  65 S10       30.24S
SALMON         CLOUDY    32  30  93 CALM      30.13F
CHALLIS        CLOUDY    34  28  79 NW7       30.18R WCI  28
$$

IDZ002-004-006-007-026-271700-
NORTHERN IDAHO


CITY           SKY/WX    TMP DP  RH WIND       PRES   REMARKS
LEWISTON       MOCLDY    44  41  89 NE3       29.96F
LOWELL           N/A     40  39  97 NW3       30.08F
COEUR D`ALENE  CLOUDY    48  39  71 S6        29.88R
MULLAN PASS    LGT RAIN  35  35 100 SW10G29   29.93S WCI  27
$$



USA.gov is the U.S. government's official web portal to all federal, state and local government web resources and services.